Location: Hopville
(44.8032°N, 123.1329°W)
Time: 04:48:40
(UTC+00:00)

CZ-4B R/B - Pass Details

Date: 24 January 2021
Orbit: 387 x 458 km, 97.6° (Epoch: 26 February)

Event Time Altitude Azimuth Distance (km) Brightness Sun altitude
Rises 13:16:35 0° 166° (SSE) 2,454 5.3 -25.3°
Reaches altitude 10° 13:18:35 10° 167° (SSE) 1,593 4.3 -24.9°
Enters shadow 13:18:52 12° 167° (SSE) 1,472 4.1 -24.8°
